Weather in Nazarovo

Russia / Khanty-Mansi Autonomous Okrug — Yugra     60°17′43″N   64°17′54″E
temp.,
°C
wind,
m/s
gust,
m/s
humid.,
%
clouds,
%
prec.,
mm/h
press.,
hPa
HPBL,
m
7 march, sun
sun723:00−14wnw369499 0.5 1004123
02:00−18wnw339185 0.0 100634
05:00−21w229247 0.0 100820
08:00−23sw129628 0.0 100820
11:00−17sw238614 0.0 1009233
14:00−13ssw23795 0.0 1008622
17:00−13sse119353 0.1 100726
20:00−17ene1199100 0.1 100620
8 march, mon
mon823:00−17ene1298100 0.1 100620
02:00−19n229994 0.1 100520
05:00−22n2210097 0.1 100520
08:00−24nnw1110075 0.0 100520
11:00−18wnw119244 0.0 1006174
14:00−14sse018786 0.0 1005403
17:00−15e239493 0.1 1005169
20:00−17e2496100 0.0 100583
9 march, tue
tue923:00−16e3497100 0.1 1004104
02:00−16e349798 0.1 1003122
05:00−15ene369699 0.5 1001208
08:00−15ene3696100 0.7 1001303
11:00−14ne3594100 0.8 1002315
14:00−13n3493100 0.1 1003318
17:00−14nnw3593100 0.3 1005401
20:00−18nnw239885 0.1 100725
10 march, wed
wed1023:00−21nnw2310084 0.1 100929
02:00−24nnw239996 0.0 101120
05:00−26nnw2210087 0.0 101119
08:00−28nnw239931 0.0 101226
11:00−24nnw239536 0.0 1013238
14:00−21nnw249173 0.0 1012331
17:00−22n239357 0.0 1011182
20:00−27nnw239426 0.0 101119
11 march, thu
thu1123:00−28nnw229514 0.0 101219
02:00−29nnw22950 0.0 101119
05:00−31nw11980 0.0 101119
08:00−30wsw12960 0.0 101119
11:00−23sw23927 0.0 1012246
14:00−18sw248792 0.0 1011415
17:00−17wsw359193 0.0 1010297
20:00−18sw3795100 0.0 1011199